Lær å fly hos oss!

Oslo Flyveklubb har i mange år utdannet flygere til privatflygersetifikat PPL(A). Skolen har godkjenning for å drive utdanning til teoriundervisning til PPL(A), privatflygersertifikat PPL (A) og mørkeflyging.

Gi bort en flytur i gave

På en introduksjonstur vil kandidaten være med på forberedelser til, og gjennomføring av en flytur på en times varighet med en av våre instruktører.

Hvor vi holder til?

Flyplassen ligger i Lillestrøm 10 minutter med tog fra Oslo. Følg storgata fra Lillestrøms sentrum så vill man se plassen på venstre side.
2 days ago

Alltid gøy med ungdom som klarer å styre flymaskinen! Fra turen idag....

LIKE
LOVE
HAHA
WOW
SAD
ANGRY
Metar/TAF Gardermoen:

ENGM 232220Z 03007KT 9999 FEW003 BKN013 11/10 Q1029

TAF ENGM 231700Z 2318/2418 03005KT 9999 SCT005 BKN012 TEMPO 2318/2322 OVC005 TEMPO 2322/2407 2000 -DZ BR OVC002 BECMG 2406/2408 BKN020 TEMPO 2413/2418 BKN012